"2009-01-16 00:00:30",544678,5.819,175.5,9.04,1.267,5.472,101.6958,3.626,4.597,41.47,0,109.8,13.48,4.39,137.5
"2009-01-16 00:01:00",544679,6.194,175.7,7.347,1.329,5.95,101.6958,3.626,4.513,42.27,0,109.8,13.48,4.39,137.7
"2009-01-16 00:01:30",544680,5.674,171.5,9.05,1.216,5.953,101.6929,3.619,4.584,41.51,0,109.8,13.48,4.38,133.5
"2009-01-16 00:02:00",544681,6.742,179.8,5.4,0.909,8.81,101.6873,3.605,4.759,42.09,0,109.8,13.48,4.37,141.8
"2009-01-16 00:02:30",544682,6.559,177.6,6.114,1.14,7.924,101.6836,3.595,4.676,41.53,0,109.8,13.49,4.36,139.6
"2009-01-16 00:03:00",544683,6.183,171.2,5.753,1.107,7.496,101.6876,3.606,4.583,40.14,0,109.8,13.48,4.37,133.2
"2009-01-16 00:03:30",544684,5.736,171,8.32,1.208,6.012,101.693,3.619,4.585,40.73,0,109.8,13.48,4.38,133.0
"2009-01-16 00:04:00",544685,5.22,169.4,3.888,1.196,5.411,101.6932,3.62,4.5,40.73,0,109.7,13.49,4.38,131.4
"2009-01-16 00:04:30",544686,5.987,177.1,8.62,1.587,6.207,101.6961,3.627,4.632,40.58,0,109.7,13.49,4.39,139.1
"2009-01-16 00:05:00",544687,7.317,185.1,6.217,1.051,8.34,101.6961,3.627,4.755,42.17,0,109.7,13.49,4.39,147.1
"2009-01-16 00:05:30",544688,6.98,182.2,6.401,1.1,7.866,101.6952,3.625,4.728,42.24,0,109.7,13.49,4.39,144.2
"2009-01-16 00:06:00",544689,7.215,184.4,5.758,1.106,7.713,101.6949,3.624,4.635,41.88,0,109.7,13.49,4.39,146.4
"2009-01-16 00:06:30",544690,5.513,176.1,4.815,0.845,4.976,101.6921,3.617,4.598,41.61,0,109.7,13.49,4.38,138.1
"2009-01-16 00:07:00",544691,5.984,179.6,6.473,1.254,6.281,101.6907,3.613,4.72,41.37,0,109.7,13.49,4.38,141.6
"2009-01-16 00:07:30",544692,6.696,179.2,5.567,1.132,7.348,101.6949,3.624,4.641,40.89,0,109.7,13.49,4.39,141.2
"2009-01-16 00:08:00",544693,6.377,177.3,6.487,1.243,7.377,101.6955,3.626,4.722,40.94,0,109.7,13.5,4.39,139.3
"2009-01-16 00:08:30",544694,7.077,181.6,3.977,0.926,8.88,101.6961,3.627,4.794,40.77,0,109.7,13.5,4.39,143.6
"2009-01-16 00:09:00",544695,6.635,178.2,6.927,1.13,7.947,101.6961,3.627,4.721,40.36,0,109.7,13.5,4.39,140.2
"2009-01-16 00:09:30",544696,6.673,182.7,6.94,1.181,7.806,101.6961,3.627,4.726,41,0,109.7,13.49,4.39,144.7
"2009-01-16 00:10:00",544697,5.658,176.1,4.263,0.868,4.555,101.6966,3.629,4.611,41.21,0,109.7,13.49,4.39,138.1
"2009-01-16 00:10:30",544698,6.651,182.1,6.75,1.256,6.937,101.6984,3.633,4.7,41.18,0,109.7,13.49,4.40,144.1
"2009-01-16 00:11:00",544699,5.968,178.5,5.444,1.097,6.654,101.7012,3.64,4.71,41.24,0,109.7,13.49,4.41,140.5
"2009-01-16 00:11:30",544700,7.175,186,5.08,0.815,8.47,101.7021,3.643,4.716,41.18,0,109.7,13.49,4.41,148.0
"2009-01-16 00:12:00",544701,6.669,184.4,7.484,1.147,6.964,101.705,3.65,4.743,41.66,0,109.7,13.49,4.41,146.4
"2009-01-16 00:12:30",544702,6.802,183.7,7.199,1.23,7.371,101.7058,3.652,4.672,41.43,0,109.7,13.49,4.42,145.7
"2009-01-16 00:13:00",544703,6.129,182.7,6.976,1.277,5.984,101.709,3.66,4.713,41.37,0,109.7,13.49,4.43,144.7
"2009-01-16 00:13:30",544704,7.065,188.1,5.959,1.198,7.257,101.711,3.665,4.715,41.31,0,109.7,13.49,4.43,150.1
"2009-01-16 00:14:00",544705,6.39,182.7,6.26,1.062,5.207,101.7113,3.666,4.617,41.01,0,109.7,13.49,4.43,144.7
"2009-01-16 00:14:30",544706,6.42,181.5,6.573,1.227,6.82,101.713,3.671,4.736,40.97,0,109.7,13.5,4.44,143.5
"2009-01-16 00:15:00",544707,6.981,188.8,6.57,1.238,7.703,101.7148,3.675,4.761,41.23,0,109.7,13.5,4.44,150.8
"2009-01-16 00:15:30",544708,6.867,185.8,5.853,1.208,7.606,101.7139,3.673,4.73,40.97,0,109.7,13.5,4.44,147.8
"2009-01-16 00:16:00",544709,6.792,187.5,6.767,1.137,6.961,101.7148,3.675,4.724,40.85,0,109.7,13.5,4.44,149.5
"2009-01-16 00:16:30",544710,6.783,184.9,6.526,1.218,6.368,101.7142,3.673,4.696,41.12,0,109.7,13.5,4.44,146.9
"2009-01-16 00:17:00",544711,5.142,175,5.38,0.897,4.964,101.715,3.676,4.621,40.75,0,109.7,13.5,4.44,137.0
"2009-01-16 00:17:30",544712,5.305,176.6,5.817,1.026,5.828,101.7162,3.679,4.753,41.05,0,109.7,13.5,4.44,138.6
"2009-01-16 00:18:00",544713,6.005,175.7,8.5,1.291,7.998,101.7156,3.677,4.75,40.59,0,109.7,13.5,4.44,137.7
"2009-01-16 00:18:30",544714,6.28,182.3,6.478,1.201,8.06,101.7168,3.68,4.749,40.19,0,109.7,13.5,4.45,144.3
"2009-01-16 00:19:00",544715,6.039,181.9,6.488,1.287,6.859,101.7239,3.698,4.772,40.73,0,109.7,13.5,4.46,143.9
"2009-01-16 00:19:30",544716,5.271,176.2,6.465,1.107,5.934,101.7279,3.708,4.651,40.57,0,109.7,13.51,4.47,138.2
"2009-01-16 00:20:00",544717,5.969,178.9,6.696,1.301,6.69,101.7273,3.707,4.828,40.87,0,109.7,13.5,4.47,140.9
"2009-01-16 00:20:30",544718,5.184,171.5,5.384,1.073,4.965,101.7219,3.693,4.713,40.67,0,109.7,13.51,4.46,133.5
"2009-01-16 00:21:00",544719,5.838,174.8,6.814,1.31,6.726,101.7234,3.697,4.738,40.5,0,109.7,13.51,4.46,136.8
"2009-01-16 00:21:30",544720,6.127,175.5,5.606,1.071,8.2,101.7242,3.699,4.834,40.32,0,109.7,13.51,4.46,137.5
"2009-01-16 00:22:00",544721,6.267,175.1,4.412,1.023,8.32,101.7256,3.703,4.868,40.2,0,109.7,13.51,4.47,137.1
"2009-01-16 00:22:30",544722,5.364,168.5,7.739,1.27,6.041,101.733,3.722,4.748,39.88,0,109.7,13.51,4.49,130.5
"2009-01-16 00:23:00",544723,4.747,165,6.02,1.086,5.335,101.7413,3.743,4.648,39.58,0,109.7,13.51,4.51,127.0
"2009-01-16 00:23:30",544724,5.139,165.9,6.71,1.231,5.731,101.7432,3.748,4.734,39.71,0,109.7,13.51,4.51,127.9
"2009-01-16 00:24:00",544725,5.703,170.5,7.364,1.273,7.13,101.7435,3.748,4.716,39.57,0,109.7,13.51,4.51,132.5
"2009-01-16 00:24:30",544726,5.905,172.2,6.298,1.042,7.956,101.747,3.757,4.871,39.69,0,109.7,13.51,4.52,134.2
"2009-01-16 00:25:00",544727,6.169,172.4,6.009,1.106,8.51,101.7512,3.768,4.882,39.87,0,109.7,13.51,4.53,134.4
"2009-01-16 00:25:30",544728,6.044,173.4,6.395,1.204,7.116,101.7487,3.762,4.801,40.4,0,109.7,13.51,4.53,135.4
"2009-01-16 00:26:00",544729,5.883,173,7.744,1.251,7.081,101.7478,3.759,4.797,40.8,0,109.7,13.51,4.52,135.0
"2009-01-16 00:26:30",544730,4.679,165.3,5.302,0.892,5.238,101.7464,3.756,4.764,40.68,0,109.7,13.51,4.52,127.3
"2009-01-16 00:27:00",544731,5.343,172.8,6.565,1.182,6.596,101.745,3.752,4.782,40.81,0,109.7,13.51,4.52,134.8
"2009-01-16 00:27:30",544732,5.933,176.2,6.313,1.138,8.03,101.7396,3.738,4.844,40.98,0,109.7,13.51,4.50,138.2
"2009-01-16 00:28:00",544733,6.009,172.9,5.082,0.948,8.3,101.7374,3.733,4.835,40.31,0,109.8,13.51,4.50,134.9
"2009-01-16 00:28:30",544734,5.675,174,6.932,1.123,7.785,101.7456,3.754,4.841,39.54,0,109.7,13.51,4.52,136.0
"2009-01-16 00:29:00",544735,5.467,172.5,7.287,1.205,6.509,101.7498,3.764,4.711,38.99,0,109.7,13.51,4.53,134.5
"2009-01-16 00:29:30",544736,5.132,175.5,8.02,1.276,6.176,101.7586,3.787,4.788,38.87,0,109.7,13.51,4.55,137.5
"2009-01-16 00:30:00",544737,4.833,174.3,4.139,1.061,6.362,101.7645,3.802,4.743,38.82,0,109.7,13.51,4.57,136.3
"2009-01-16 00:30:30",544738,5.546,177.2,6.096,1.206,7.451,101.7645,3.802,4.895,39.11,0,109.7,13.51,4.57,139.2
"2009-01-16 00:31:00",544739,6.117,186.6,6.205,1.216,7.929,101.7645,3.802,4.904,39.61,0,109.7,13.51,4.57,148.6
"2009-01-16 00:31:30",544740,6.079,182.2,6.061,1.022,8.84,101.7645,3.802,4.96,39.71,0,109.7,13.51,4.57,144.2
"2009-01-16 00:32:00",544741,5.437,179.6,6.61,1.264,6.294,101.7645,3.802,4.759,39.37,0,109.7,13.51,4.57,141.6
"2009-01-16 00:32:30",544742,4.57,174.1,6.121,1.055,5.342,101.7645,3.802,4.831,39.25,0,109.7,13.51,4.57,136.1
"2009-01-16 00:33:00",544743,4.585,174.5,2.216,0.5,4.111,101.7645,3.802,4.74,39.14,0,109.7,13.51,4.57,136.5
"2009-01-16 00:33:30",544744,6.533,188.1,6.031,1.17,7.818,101.7645,3.802,4.918,39.73,0,109.7,13.52,4.57,150.1
"2009-01-16 00:34:00",544745,6.554,185.4,5.267,1.069,8.17,101.7645,3.802,4.942,39.42,0,109.7,13.52,4.57,147.4
"2009-01-16 00:34:30",544746,6.818,186.4,3.237,0.724,9.08,101.7656,3.805,5.012,39.09,0,109.7,13.52,4.57,148.4
"2009-01-16 00:35:00",544747,6.064,181.9,6.869,1.232,7.259,101.7668,3.808,4.831,38.92,0,109.7,13.52,4.57,143.9
"2009-01-16 00:35:30",544748,4.345,174.9,3.329,0.267,4.078,101.7713,3.819,4.812,39,0,109.7,13.55,4.58,136.9
"2009-01-16 00:36:00",544749,4.827,177.2,5.998,0.947,5.242,101.7665,3.807,4.879,39.06,0,109.7,13.52,4.57,139.2
"2009-01-16 00:36:30",544750,5.585,182.5,6.755,1.239,5.866,101.7668,3.808,4.815,39.17,0,109.7,13.52,4.57,144.5
"2009-01-16 00:37:00",544751,6.329,186.7,5.868,1.086,7.954,101.7671,3.809,4.949,39.09,0,109.7,13.52,4.57,148.7
"2009-01-16 00:37:30",544752,6.69,188.4,4.598,0.692,8.87,101.7685,3.812,5.019,38.8,0,109.7,13.52,4.58,150.4
"2009-01-16 00:38:00",544753,6.086,187.2,5.988,1.251,7.086,101.7784,3.837,4.929,38.54,0,109.7,13.52,4.60,149.2
"2009-01-16 00:38:30",544754,4.122,178,3.294,0.2,4.066,101.7926,3.874,4.823,38.08,0,109.7,13.55,4.64,140.0
"2009-01-16 00:39:00",544755,5.372,185.8,5.028,1.111,4.902,101.8025,3.899,4.914,38.81,0,109.7,13.52,4.66,147.8
"2009-01-16 00:39:30",544756,7.032,189.9,6.476,1.118,7.498,101.7983,3.888,4.93,38.9,0,109.7,13.52,4.65,151.9
"2009-01-16 00:40:00",544757,6.507,189,6.169,1.219,7.095,101.7918,3.872,4.918,38.77,0,109.7,13.53,4.64,151.0
"2009-01-16 00:40:30",544758,6.946,192.4,4.765,1.071,8.33,101.7941,3.878,5.032,38.58,0,109.7,13.53,4.64,154.4
"2009-01-16 00:41:00",544759,6.434,188.7,6.431,1.224,7.434,101.7979,3.887,4.997,38.35,0,109.7,13.53,4.65,150.7
"2009-01-16 00:41:30",544760,5.776,184.4,6.736,1.214,5.689,101.7956,3.881,4.841,38.08,0,109.7,13.52,4.65,146.4
"2009-01-16 00:42:00",544761,4.578,183.7,4.117,0.403,4.377,101.7995,3.891,4.863,37.8,0,109.7,13.55,4.66,145.7
"2009-01-16 00:42:30",544762,6.47,190.3,5.662,1.086,7.671,101.8151,3.931,4.988,37.73,0,109.7,13.52,4.70,152.3
"2009-01-16 00:43:00",544763,6.271,189.5,6.72,1.064,7.603,101.8151,3.931,4.946,37.67,0,109.7,13.52,4.70,151.5
"2009-01-16 00:43:30",544764,6.231,193.1,7.077,1.097,7.337,101.8163,3.934,5.033,38.4,0,109.7,13.51,4.70,155.1
"2009-01-16 00:44:00",544765,6.086,190.1,6.619,1.102,7.61,101.8174,3.937,5.054,38.03,0,109.7,13.52,4.70,152.1
"2009-01-16 00:44:30",544766,6.181,187.4,6.926,1.23,6.867,101.8157,3.933,4.938,37.84,0,109.7,13.51,4.70,149.4
"2009-01-16 00:45:00",544767,5.765,185.4,6.334,1.352,6.355,101.8183,3.939,4.984,37.74,0,109.7,13.51,4.71,147.4
"2009-01-16 00:45:30",544768,6.259,188.5,6.449,1.162,6.977,101.818,3.939,4.972,37.69,0,109.7,13.51,4.70,150.5
"2009-01-16 00:46:00",544769,6.25,186.1,6.586,1.136,7.069,101.8186,3.94,4.932,37.6,0,109.6,13.52,4.71,148.1
"2009-01-16 00:46:30",544770,6,183.7,7.967,1.208,6.781,101.8183,3.939,4.988,38.16,0,109.7,13.52,4.71,145.7
"2009-01-16 00:47:00",544771,5.674,189.4,6.959,1.222,7.214,101.8197,3.943,5.023,37.35,0,109.7,13.52,4.71,151.4
"2009-01-16 00:47:30",544772,5.045,185.8,8.7,0.929,6.155,101.8373,3.988,4.989,37.7,0,109.7,13.53,4.75,147.8
"2009-01-16 00:48:00",544773,5.585,190.1,5.853,1.338,6.713,101.854,4.03,5.006,38.13,0,109.7,13.53,4.80,152.1
"2009-01-16 00:48:30",544774,6.221,186.1,8.14,1.122,7.709,101.8633,4.054,5.119,37.77,0,109.7,13.53,4.82,148.1
"2009-01-16 00:49:00",544775,6.19,184.7,6.112,1.319,6.986,101.8727,4.078,5.051,38.12,0,109.7,13.53,4.84,146.7
"2009-01-16 00:49:30",544776,5.635,186.1,5.367,1.229,6.479,101.8577,4.04,5.075,38.49,0,109.7,13.53,4.81,148.1
"2009-01-16 00:50:00",544777,5.527,189,4.972,1.239,5.989,101.8566,4.037,5.016,38.45,0,109.7,13.53,4.80,151.0
"2009-01-16 00:50:30",544778,5.964,189.8,7.184,1.248,6.848,101.8427,4.002,5.016,38.05,0,109.7,13.53,4.77,151.8
"2009-01-16 00:51:00",544779,6.938,192.8,5.995,1.176,8.08,101.8312,3.972,5.113,38.67,0,109.7,13.53,4.74,154.8
"2009-01-16 00:51:30",544780,6.58,195,5.062,1.118,8.08,101.8252,3.957,5.087,39.01,0,109.7,13.53,4.72,157.0
"2009-01-16 00:52:00",544781,6.59,192.6,5.828,1.23,7.554,101.8238,3.953,5.077,38.84,0,109.7,13.53,4.72,154.6
"2009-01-16 00:52:30",544782,5.097,186.7,5.636,0.964,4.92,101.8238,3.953,4.977,39.35,0,109.7,13.53,4.72,148.7
"2009-01-16 00:53:00",544783,6.404,194.5,5.871,1.204,6.443,101.8241,3.954,4.835,39.45,0,109.7,13.53,4.72,156.5
"2009-01-16 00:53:30",544784,5.192,190.5,5.465,0.995,5.789,101.8232,3.952,4.988,39.48,0,109.7,13.53,4.72,152.5
"2009-01-16 00:54:00",544785,7.141,199.6,4.947,0.831,9.03,101.8198,3.943,5.06,39.49,0,109.7,13.53,4.71,161.6
"2009-01-16 00:54:30",544786,6.919,198.7,5.205,0.893,8.91,101.817,3.936,5.063,39.81,0,109.7,13.53,4.70,160.7
"2009-01-16 00:55:00",544787,6.263,196.4,6.256,1.132,7.347,101.8153,3.932,5.007,39.64,0,109.7,13.53,4.70,158.4
"2009-01-16 00:55:30",544788,5.504,193.9,5.979,1.247,6.13,101.8142,3.929,4.899,39.06,0,109.7,13.53,4.69,155.9
"2009-01-16 00:56:00",544789,4.663,190,3.893,0.774,4.658,101.8193,3.942,4.794,38.48,0,109.7,13.53,4.71,152.0
"2009-01-16 00:56:30",544790,5.101,190.3,4.461,0.886,5.079,101.8273,3.962,4.87,38.63,0,109.7,13.53,4.73,152.3
"2009-01-16 00:57:00",544791,7.241,200.9,4.745,0.914,8.88,101.8261,3.959,5.081,39.49,0,109.7,13.53,4.73,162.9
"2009-01-16 00:57:30",544792,7.248,203.1,3.915,0.862,9.2,101.8252,3.957,5.113,39.89,0,109.7,13.53,4.72,165.1
"2009-01-16 00:58:00",544793,6.814,200.5,5.784,1.054,8.31,101.825,3.956,5.061,39.13,0,109.7,13.53,4.72,162.5
"2009-01-16 00:58:30",544794,7.185,202.2,6.207,1.3,7.704,101.8233,3.952,5.001,39.86,0,109.7,13.53,4.72,164.2
"2009-01-16 00:59:00",544795,5.936,193.6,4.311,1.029,4.364,101.8222,3.949,4.804,39.83,0,109.7,13.53,4.72,155.6
"2009-01-16 00:59:30",544796,6.366,197.2,6.197,1.141,6.01,101.8156,3.932,4.898,39.8,0,109.7,13.53,4.70,159.2
"2009-01-16 01:00:00",544797,7.155,200.3,4.385,0.781,9.63,101.8128,3.925,5.06,38.99,0,109.7,13.52,4.69,162.3
"2009-01-16 01:00:30",544798,7.288,202.5,4.051,0.652,9.53,101.8238,3.953,5.105,38.49,0,109.6,13.53,4.72,164.5
"2009-01-16 01:01:00",544799,7.278,202.7,5.553,1.132,8.11,101.829,3.966,5.045,39.56,0,109.7,13.52,4.73,164.7
"2009-01-16 01:01:30",544800,6.937,200.1,6.78,1.034,7.162,101.8307,3.971,5.002,38.75,0,109.7,13.53,4.74,162.1
"2009-01-16 01:02:00",544801,5.536,193.9,1.836,0.218,4.234,101.8321,3.975,4.81,38.56,0,109.7,13.52,4.74,155.9
"2009-01-16 01:02:30",544802,6.783,200.4,6.026,1.101,7.2,101.8316,3.973,5.066,39.03,0,109.7,13.53,4.74,162.4
"2009-01-16 01:03:00",544803,7.208,202.2,7.126,1.218,8.47,101.8324,3.975,5.066,38.96,0,109.7,13.53,4.74,164.2
"2009-01-16 01:03:30",544804,8.18,206.6,4.51,0.888,9.4,101.8321,3.975,5.122,39.31,0,109.7,13.53,4.74,168.6
"2009-01-16 01:04:00",544805,8.38,207.6,3.385,0.614,9.18,101.8324,3.975,5.13,39.54,0,109.7,13.53,4.74,169.6
"2009-01-16 01:04:30",544806,6.919,204.1,6.293,1.233,6.675,101.8327,3.976,5.02,38.96,0,109.7,13.53,4.74,166.1
"2009-01-16 01:05:00",544807,6.195,201.3,4.029,0.867,4.571,101.833,3.977,4.83,38.83,0,109.7,13.53,4.74,163.3
"2009-01-16 01:05:30",544808,6.87,205.2,6.681,1.23,6.727,101.8327,3.976,4.997,39.16,0,109.7,13.53,4.74,167.2
"2009-01-16 01:06:00",544809,7.135,206,6.21,1.145,6.995,101.8327,3.976,4.942,39.19,0,109.7,13.53,4.74,168.0
"2009-01-16 01:06:30",544810,7.478,209.2,5.951,1.072,8.77,101.833,3.977,5.142,39.18,0,109.7,13.53,4.74,171.2
"2009-01-16 01:07:00",544811,8.38,211.1,3.881,0.72,9.23,101.833,3.977,5.144,39.29,0,109.7,13.53,4.74,173.1
"2009-01-16 01:07:30",544812,7.592,208.1,6.512,1.233,7.765,101.833,3.977,5.107,39.07,0,109.7,13.53,4.74,170.1
"2009-01-16 01:08:00",544813,6.4,201.5,4.834,0.912,4.865,101.833,3.977,4.909,38.77,0,109.7,13.53,4.74,163.5
"2009-01-16 01:08:30",544814,7.265,205.2,6.829,1.12,6.65,101.8327,3.976,4.928,39.06,0,109.7,13.53,4.74,167.2
"2009-01-16 01:09:00",544815,6.898,200.8,5.819,1.238,6.128,101.8324,3.975,4.965,39.14,0,109.7,13.53,4.74,162.8
"2009-01-16 01:09:30",544816,8.54,209.6,3.705,0.675,9.47,101.833,3.977,5.139,39.37,0,109.7,13.53,4.74,171.6
"2009-01-16 01:10:00",544817,8.58,209.6,3.301,0.657,9.37,101.8327,3.976,5.139,39.36,0,109.7,13.53,4.74,171.6
"2009-01-16 01:10:30",544818,8.6,209.6,3.242,0.895,9.14,101.833,3.977,5.133,39.45,0,109.7,13.53,4.74,171.6
"2009-01-16 01:11:00",544819,8.18,205.9,6.272,1.118,7.68,101.8313,3.972,5.061,39.36,0,109.7,13.53,4.74,167.9
"2009-01-16 01:11:30",544820,7.173,200.8,5.684,1.078,4.995,101.8287,3.966,4.86,39.13,0,109.7,13.53,4.73,162.8
"2009-01-16 01:12:00",544821,7.358,200.7,5.496,1.123,5.629,101.8236,3.953,4.924,39.16,0,109.7,13.53,4.72,162.7
"2009-01-16 01:12:30",544822,9.01,207.2,5.552,0.882,8.74,101.8157,3.933,5.058,39.37,0,109.7,13.53,4.70,169.2
"2009-01-16 01:13:00",544823,9.09,209.3,3.133,0.758,9.43,101.8072,3.911,5.114,39.41,0,109.7,13.53,4.68,171.3
"2009-01-16 01:13:30",544824,8.52,207.1,5.729,1.102,8.41,101.7982,3.888,5.085,39.35,0,109.7,13.53,4.65,169.1
"2009-01-16 01:14:00",544825,8.25,206.4,5.689,1.17,7.847,101.7976,3.886,5.022,39.3,0,109.7,13.53,4.65,168.4
"2009-01-16 01:14:30",544826,7.182,200.9,5.675,1.216,5.687,101.7979,3.887,4.868,39.14,0,109.7,13.53,4.65,162.9
"2009-01-16 01:15:00",544827,7.631,202.2,6.457,1.197,6.712,101.7985,3.889,4.946,39.11,0,109.7,13.53,4.65,164.2
"2009-01-16 01:15:30",544828,8.05,205.8,6.272,1.168,7.932,101.7917,3.871,5.014,39.18,0,109.7,13.53,4.64,167.8
"2009-01-16 01:16:00",544829,8.57,209,5.261,0.89,8.5,101.7852,3.855,4.965,39.16,0,109.7,13.53,4.62,171.0
"2009-01-16 01:16:30",544830,8.47,208.3,5.666,1.062,8.21,101.784,3.852,4.983,39.51,0,109.7,13.53,4.62,170.3
"2009-01-16 01:17:00",544831,8.32,207.9,5.63,1.082,8.18,101.7812,3.845,4.959,39.91,0,109.7,13.52,4.61,169.9
"2009-01-16 01:17:30",544832,7.432,202.3,6.25,1.24,5.855,101.7815,3.845,4.861,39.63,0,109.7,13.52,4.61,164.3
"2009-01-16 01:18:00",544833,7.857,207.9,5.622,1.203,7.685,101.7815,3.845,4.944,39.34,0,109.7,13.53,4.61,169.9
"2009-01-16 01:18:30",544834,7.759,207.3,6.025,1.195,7.492,101.7786,3.838,4.98,39,0,109.7,13.52,4.60,169.3
"2009-01-16 01:19:00",544835,7.639,204.1,5.874,1.182,7.507,101.773,3.824,4.916,38.68,0,109.7,13.53,4.59,166.1
"2009-01-16 01:19:30",544836,7.844,204.5,6.497,1.059,8.04,101.7642,3.801,4.954,38.64,0,109.7,13.53,4.57,166.5
"2009-01-16 01:20:00",544837,7.904,205.3,5.05,1.118,8.05,101.7631,3.798,4.859,38.52,0,109.7,13.53,4.56,167.3
"2009-01-16 01:20:30",544838,8.11,206.2,5.404,0.846,8.01,101.7642,3.801,4.886,38.54,0,109.7,13.53,4.57,168.2
"2009-01-16 01:21:00",544839,7.687,205.3,5.953,1.034,7.948,101.7637,3.8,4.934,38.62,0,109.7,13.53,4.57,167.3
"2009-01-16 01:21:30",544840,7.573,204.1,6.067,1.152,7.302,101.7642,3.801,4.883,38.51,0,109.7,13.53,4.57,166.1
"2009-01-16 01:22:00",544841,6.592,197.5,4.996,1.007,5.328,101.7642,3.801,4.785,38.24,0,109.7,13.53,4.57,159.5
"2009-01-16 01:22:30",544842,7.522,205.5,6.378,1.244,7.745,101.7642,3.801,4.91,38.33,0,109.7,13.53,4.57,167.5
"2009-01-16 01:23:00",544843,7.446,207.3,6.032,1.207,7.562,101.7642,3.801,4.891,38.34,0,109.7,13.53,4.57,169.3
"2009-01-16 01:23:30",544844,8.02,210.2,4.506,1.025,8.92,101.7639,3.801,4.936,38.29,0,109.7,13.53,4.57,172.2
"2009-01-16 01:24:00",544845,7.709,208.9,5.894,1.134,8.09,101.7645,3.802,4.948,38.2,0,109.7,13.53,4.57,170.9
"2009-01-16 01:24:30",544846,8.17,210.5,4.012,0.902,8.52,101.7642,3.801,4.931,38.15,0,109.7,13.53,4.57,172.5
"2009-01-16 01:25:00",544847,6.791,203.7,4.843,1.028,5.542,101.7651,3.803,4.882,38.08,0,109.7,13.53,4.57,165.7
"2009-01-16 01:25:30",544848,8.06,208.8,5.944,1.106,7.283,101.7651,3.803,4.749,37.96,0,109.7,13.53,4.57,170.8
"2009-01-16 01:26:00",544849,6.838,203.6,5.341,0.998,5.894,101.7648,3.803,4.786,38.05,0,109.7,13.54,4.57,165.6
"2009-01-16 01:26:30",544850,8.59,211.4,4.213,0.773,8.72,101.7654,3.804,5.009,38.22,0,109.7,13.53,4.57,173.4
"2009-01-16 01:27:00",544851,8.91,212.3,3.342,0.68,9.26,101.7654,3.804,4.991,38.18,0,109.7,13.54,4.57,174.3
"2009-01-16 01:27:30",544852,8.99,214.9,3.064,0.689,9.14,101.7688,3.813,4.967,38.17,0,109.7,13.53,4.58,176.9
"2009-01-16 01:28:00",544853,7.634,207.5,5.768,1.244,6.45,101.7787,3.838,4.86,37.97,0,109.7,13.53,4.60,169.5
"2009-01-16 01:28:30",544854,7.162,205.2,5.428,0.966,5.763,101.7855,3.855,4.875,37.86,0,109.7,13.53,4.62,167.2
"2009-01-16 01:29:00",544855,8.27,209.6,6.203,1.246,7.516,101.7914,3.871,4.95,37.88,0,109.7,13.53,4.64,171.6
"2009-01-16 01:29:30",544856,9.15,214.1,4.251,0.774,9.08,101.7982,3.888,4.969,37.92,0,109.7,13.53,4.65,176.1
"2009-01-16 01:30:00",544857,9.37,213.6,3.5,0.704,9.38,101.7988,3.889,5.031,38.17,0,109.7,13.53,4.66,175.6
"2009-01-16 01:30:30",544858,9.35,213.7,2.846,0.764,9.15,101.799,3.89,5.037,38.06,0,109.7,13.53,4.66,175.7
"2009-01-16 01:31:00",544859,9.07,212,2.882,0.77,8.82,101.7988,3.889,5.025,37.97,0,109.7,13.53,4.66,174.0
"2009-01-16 01:31:30",544860,7.089,201.6,3.565,0.801,4.918,101.799,3.89,4.862,37.82,0,109.7,13.53,4.66,163.6
"2009-01-16 01:32:00",544861,7.516,204.6,5.085,1.109,6.212,101.799,3.89,4.905,37.44,0,109.7,13.53,4.66,166.6
"2009-01-16 01:32:30",544862,7.345,201.4,5.735,1.203,6.456,101.799,3.89,4.854,37.02,0,109.7,13.53,4.66,163.4
"2009-01-16 01:33:00",544863,8.58,205.5,5.551,0.942,8.94,101.799,3.89,5.042,36.94,0,109.7,13.53,4.66,167.5
"2009-01-16 01:33:30",544864,8.9,208.9,4.789,0.902,9.44,101.799,3.89,5.029,37.43,0,109.7,13.53,4.66,170.9
"2009-01-16 01:34:00",544865,8.69,207.2,5.321,0.852,9.23,101.8002,3.893,5.035,38.79,0,109.7,13.53,4.66,169.2
"2009-01-16 01:34:30",544866,8.84,207.8,4.249,0.867,8.93,101.8067,3.91,5.057,37.66,0,109.7,13.53,4.68,169.8
"2009-01-16 01:35:00",544867,8.94,208.4,4.42,0.834,8.87,101.8089,3.915,5.026,37.04,0,109.7,13.53,4.68,170.4
"2009-01-16 01:35:30",544868,7.112,198.6,4.354,0.948,5.099,101.8169,3.936,4.929,37.17,0,109.7,13.53,4.70,160.6
"2009-01-16 01:36:00",544869,8.49,203.6,7.113,1.204,6.853,101.8203,3.944,4.822,36.49,0,109.7,13.53,4.71,165.6
"2009-01-16 01:36:30",544870,8.93,204,5.188,0.885,8.9,101.816,3.933,5.066,36.46,0,109.7,13.53,4.70,166.0
"2009-01-16 01:37:00",544871,9.1,205.3,4.809,0.33,9.62,101.816,3.933,5.099,36.31,0,109.7,13.54,4.70,167.3
"2009-01-16 01:37:30",544872,8.87,207.3,3.779,0.864,9.04,101.8149,3.931,5.095,36.25,0,109.7,13.53,4.70,169.3
"2009-01-16 01:38:00",544873,8.34,205.9,6.139,1.065,8.23,101.8163,3.934,5.053,36.22,0,109.7,13.53,4.70,167.9
"2009-01-16 01:38:30",544874,6.547,198.3,4.985,0.849,4.594,101.8276,3.963,4.845,38.54,0,109.7,13.53,4.73,160.3
"2009-01-16 01:39:00",544875,7.761,200.4,6.013,1.372,6.67,101.8321,3.975,4.979,36.67,0,109.7,13.53,4.74,162.4
"2009-01-16 01:39:30",544876,8.28,203.4,5.961,1.196,7.552,101.8321,3.975,5.022,36.49,0,109.7,13.53,4.74,165.4
"2009-01-16 01:40:00",544877,8.91,205.2,4.296,0.94,9.13,101.8318,3.974,5.102,36.6,0,109.7,13.53,4.74,167.2
"2009-01-16 01:40:30",544878,8.77,204.4,4.776,0.968,8.87,101.829,3.967,5.075,36.49,0,109.7,13.54,4.73,166.4
"2009-01-16 01:41:00",544879,8.92,203.7,4.472,0.941,8.97,101.829,3.967,5.096,36.47,0,109.7,13.53,4.73,165.7
"2009-01-16 01:41:30",544880,8.8,203.3,4.191,0.946,8.39,101.8296,3.968,5.072,36.43,0,109.7,13.53,4.73,165.3
"2009-01-16 01:42:00",544881,8.06,199.5,6.135,1.187,7.288,101.8304,3.97,4.931,36.24,0,109.7,13.53,4.74,161.5
"2009-01-16 01:42:30",544882,7.844,201.1,5.909,1.269,6.788,101.8301,3.969,5.08,36.99,0,109.6,13.53,4.74,163.1
"2009-01-16 01:43:00",544883,7.843,201.8,5.143,1.255,5.835,101.8321,3.975,4.858,38.09,0,109.7,13.53,4.74,163.8
"2009-01-16 01:43:30",544884,9.03,208.6,4.696,0.863,8.94,101.8298,3.969,5.072,39.05,0,109.7,13.54,4.73,170.6
"2009-01-16 01:44:00",544885,9.13,209.5,4.938,0.945,8.93,101.8224,3.95,5.086,40.69,0,109.7,13.54,4.72,171.5
"2009-01-16 01:44:30",544886,9.32,209.4,4.408,0.572,9.49,101.8188,3.941,5.122,40.14,0,109.7,13.54,4.71,171.4
"2009-01-16 01:45:00",544887,8.8,209.2,4.773,1.151,8.47,101.8177,3.938,5.111,39.02,0,109.7,13.53,4.70,171.2
"2009-01-16 01:45:30",544888,8.48,207.3,6.246,1.157,7.393,101.8182,3.939,5.033,39.72,0,109.7,13.53,4.70,169.3
"2009-01-16 01:46:00",544889,7.88,205.4,5.749,1.177,5.985,101.818,3.938,5.009,41.64,0,109.7,13.53,4.70,167.4
"2009-01-16 01:46:30",544890,8.23,206,5.901,1.219,5.882,101.8146,3.93,4.9,42.89,0,109.7,13.53,4.70,168.0
"2009-01-16 01:47:00",544891,8.89,210.7,5.614,1.082,8.2,101.8131,3.926,5.054,42.88,0,109.7,13.53,4.69,172.7
"2009-01-16 01:47:30",544892,9.56,212.7,4.343,0.577,9.49,101.8117,3.922,5.108,43.76,0,109.7,13.53,4.69,174.7
"2009-01-16 01:48:00",544893,9.01,210.7,5.648,1.133,8.24,101.8091,3.916,5.076,44.12,0,109.7,13.53,4.68,172.7
"2009-01-16 01:48:30",544894,8.7,208.5,6.329,1.174,7.199,101.8063,3.909,4.95,44.12,0,109.7,13.53,4.67,170.5
"2009-01-16 01:49:00",544895,8.91,209.6,6.076,1.13,8.09,101.8026,3.899,5.05,43.92,0,109.7,13.53,4.66,171.6
"2009-01-16 01:49:30",544896,8.7,208.2,5.862,1.169,7.678,101.8009,3.895,5.03,44.05,0,109.6,13.53,4.66,170.2